View from above orbital plane
|
View from above satellite
|
Ground track
|
The orbit data is extracted from the following two-line orbital elements,
1 00059U 60013B 21019.87730423 .00000093 00000-0 48609-5 0 9995
2 00059 28.2473 186.4806 0189283 302.6787 55.5631 13.52982354975872
Epoch (UTC): | 19 January 2021 21:03:19 |
Eccentricity: | 0.0189283 |
inclination: | 28.2473° |
perigee height: | 920 km |
apogee height: | 1202 km |
right ascension of ascending node: | 186.4806° |
argument of perigee: | 302.6787° |
revolutions per day: | 13.52982354 |
mean anomaly at epoch: | 55.5631° |
orbit number at epoch: | 97587 |
The dashed part of the orbit path shows where the satellite is in the earth's shadow,
|
|